This is the latest recevied weather packets stored in our database for station/object KE0PRS. If no packets are shown the sender has not sent any weather packets the latest 10 day(s).
| Time | Temp. | Humidity | Pressure | Rain* | Wind** | Luminosity | Snow |
|---|---|---|---|---|---|---|---|
| 1777839202 | 30° C | 16% | 1010.6 hPa | 0 mm | - | 736 W/m² | - |
| 1777838900 | 30.56° C | 17% | 1010.3 hPa | 0 mm | - | 755 W/m² | - |
| 1777838595 | 30.56° C | 16% | 1010.6 hPa | 0 mm | - | 624 W/m² | - |
| 1777838293 | 30° C | 17% | 1010.7 hPa | 0 mm | - | 678 W/m² | - |
| 1777837989 | 30° C | 17% | 1010.7 hPa | 0 mm | - | 788 W/m² | - |
| 1777837687 | 30° C | 17% | 1010.9 hPa | 0 mm | - | 790 W/m² | - |
| 1777837382 | 30° C | 17% | 1010.9 hPa | 0 mm | - | 798 W/m² | - |
| 1777837079 | 29.44° C | 18% | 1011 hPa | 0 mm | - | 802 W/m² | - |
| 1777836775 | 30° C | 18% | 1011.1 hPa | 0 mm | - | 759 W/m² | - |
| 1777836471 | 30° C | 18% | 1011.3 hPa | 0 mm | - | 825 W/m² | - |
| 1777836166 | 29.44° C | 19% | 1011.2 hPa | 0 mm | - | 846 W/m² | - |
| 1777835863 | 29.44° C | 19% | 1011.4 hPa | 0 mm | - | 714 W/m² | - |
| 1777835560 | 29.44° C | 17% | 1011.5 hPa | 0 mm | - | 798 W/m² | - |
| 1777835257 | 29.44° C | 17% | 1011.7 hPa | 0 mm | - | 847 W/m² | - |
| 1777834954 | 29.44° C | 19% | 1011.8 hPa | 0 mm | - | 820 W/m² | - |
| 1777834651 | 28.89° C | 19% | 1011.8 hPa | 0 mm | - | 843 W/m² | - |
| 1777834346 | 29.44° C | 19% | 1011.9 hPa | 0 mm | - | 845 W/m² | - |
| 1777834041 | 28.89° C | 19% | 1011.7 hPa | 0 mm | - | 750 W/m² | - |
| 1777833738 | 28.89° C | 19% | 1012 hPa | 0 mm | - | 848 W/m² | - |
| 1777833434 | 28.89° C | 20% | 1012 hPa | 0 mm | - | 850 W/m² | - |
| 1777833131 | 28.33° C | 20% | 1012.4 hPa | 0 mm | - | 749 W/m² | - |
| 1777832829 | 28.89° C | 19% | 1012.4 hPa | 0 mm | - | 799 W/m² | - |
| 1777832528 | 29.44° C | 20% | 1012.4 hPa | 0 mm | - | 817 W/m² | - |
| 1777832224 | 29.44° C | 21% | 1012.4 hPa | 0 mm | - | 812 W/m² | - |
| 1777831921 | 28.89° C | 21% | 1012.7 hPa | 0 mm | - | 806 W/m² | - |
* Rain latest hour (hover to see other rain measurements)
** Current wind speed in m/s (hover to see current wind gust speed)